This demonstration page uses our WeatherBlox Daily Observations layout. Learn more.

Left ArrowRight Arrow

Hourly Observations for June 7, 2019

Temp ( °F °C ) Dew Point ( °F °C ) Humidity (%) Winds ( mph kmh ) Pressure ( in mb ) Visibility ( mi km ) Precip ( " mm )
12:59 am 00:59 Mostly Cloudy 76 24.4 70 21.1 82 82 SW 12 19 29.85 1011 8 13 0.00 0.00
1:59 am 01:59 Mostly Cloudy 73 22.8 70 21.1 90 90 SW 7 11 29.82 1010 7 11 0.05 1.27
2:59 am 02:59 Mostly Cloudy 74 23.3 70 21.1 88 88 SW 6 9 29.82 1010 8 13 0.00 0.00
3:59 am 03:59 Mostly Cloudy 74 23.3 70 21.1 88 88 WSW 5 7 29.81 1010 8 13 0.00 0.00
4:59 am 04:59 Mostly Cloudy 74 23.3 70 21.1 88 88 WSW 5 7 29.82 1010 8 13 0.00 0.00
5:59 am 05:59 Mostly Cloudy 73 22.8 71 21.7 94 94 Calm 29.84 1011 7 11 0.00 0.00
6:59 am 06:59 Mostly Cloudy 74 23.3 71 21.7 91 91 Calm 29.85 1011 7 11 0.00 0.00
7:59 am 07:59 Cloudy 76 24.4 70 21.1 82 82 W 5 7 29.85 1011 7 11 0.00 0.00
8:59 am 08:59 Mostly Cloudy 77 25 70 21.1 79 79 W 5 7 29.86 1011 8 13 0.00 0.00
9:59 am 09:59 Mostly Cloudy 77 25 69 20.6 77 77 W 5 7 29.86 1011 9 14 0.00 0.00
10:59 am 10:59 Cloudy 79 26.1 70 21.1 74 74 ENE 5 7 29.88 1012 8 13 0.00 0.00
11:59 am 11:59 Cloudy 78 25.6 71 21.7 79 79 ENE 5 7 29.88 1012 7 11 0.00 0.00
12:59 pm 12:59 Cloudy 78 25.6 73 22.8 85 85 ENE 8 13 29.86 1011 7 11 0.01 0.25
1:59 pm 13:59 Cloudy with Mist and Fog 77 25 73 22.8 88 88 ENE 10 17 29.85 1011 5 8 0.00 0.00
2:38 pm 14:38 Mostly Cloudy with Mist and Fog 75 23.9 71 21.7 88 88 ENE 13 20 29.86 1011 5 8 0.00 0.00
2:59 pm 14:59 Cloudy with Mist and Fog 75 23.9 71 21.7 88 88 ENE 14 22 29.86 1011 6 10 0.00 0.00
3:45 pm 15:45 Cloudy with Thunderstorms 73 22.8 71 21.7 94 94 NE 14 22 29.86 1011 3 5 0.01 0.25
3:59 pm 15:59 Cloudy with Light Rain 73 22.8 71 21.7 94 94 ENE 12 19 29.86 1011 2 3 0.04 1.02
4:03 pm 16:03 Cloudy with Rain 73 22.8 71 21.7 94 94 ENE 13 20 29.87 1011 2 2 0.04 1.02
4:13 pm 16:13 Cloudy with Rain 73 22.8 71 21.7 94 94 E 6 9 29.87 1011 1 2 0.13 3.30
4:31 pm 16:31 Cloudy with Rain 73 22.8 71 21.7 94 94 NE 12 19 29.87 1011 1 1 0.34 8.64
4:39 pm 16:39 Cloudy with Rain 72 22.2 71 21.7 97 97 ENE 12 19 29.87 1011 1 1 0.42 10.67
4:50 pm 16:50 Cloudy with Rain 72 22.2 71 21.7 97 97 NE 12 19 29.87 1011 1 2 0.48 12.19
4:59 pm 16:59 Cloudy with Light Rain 72 22.2 71 21.7 97 97 NE 13 20 29.87 1012 2 2 0.51 12.95
5:10 pm 17:10 Cloudy with Heavy Rain 72 22.2 71 21.7 97 97 ENE 12 19 29.87 1011 1 1 0.11 2.79
5:22 pm 17:22 Cloudy with Rain 72 22.2 71 21.7 97 97 ENE 12 19 29.88 1012 1 2 0.21 5.33
5:38 pm 17:38 Cloudy with Rain 72 22.2 71 21.7 97 97 ENE 7 11 29.88 1012 1 2 0.29 7.37
5:43 pm 17:43 Cloudy with Heavy Rain 72 22.2 71 21.7 97 97 ENE 10 17 29.88 1012 1 1 0.37 9.40
5:59 pm 17:59 Cloudy with Heavy Rain 72 22.2 71 21.7 97 97 ENE 9 15 29.88 1012 1 1 0.59 14.99
6:08 pm 18:08 Cloudy with Heavy Rain 72 22.2 71 21.7 97 97 ENE 12 19 29.88 1012 1 1 0.13 3.30
6:14 pm 18:14 Cloudy with Heavy Rain 72 22.2 71 21.7 97 97 NE 10 17 29.88 1012 1 2 0.21 5.33
6:59 pm 18:59 Cloudy with Light Rain 72 22.2 71 21.7 97 97 ENE 10 17 29.88 1012 2 3 0.59 14.99
7:09 pm 19:09 Mostly Cloudy with Light Rain 72 22.2 71 21.7 97 97 ENE 9 15 29.89 1012 2 3 0.01 0.25
7:59 pm 19:59 Cloudy with Light Rain 72 22.2 71 21.7 97 97 E 10 17 29.90 1012 2 3 0.05 1.27
8:59 pm 20:59 Cloudy with Light Rain 72 22.2 71 21.7 97 97 E 8 13 29.90 1013 4 6 0.04 1.02
9:45 pm 21:45 Cloudy with Mist and Fog 72 22.2 70 21.1 94 94 E 9 15 29.92 1013 4 6 0.01 0.25
9:59 pm 21:59 Mostly Cloudy with Mist and Fog 72 22.2 71 21.7 97 97 E 8 13 29.92 1013 4 6 0.01 0.25
10:20 pm 22:20 Mostly Cloudy with Light Rain 72 22.2 70 21.1 94 94 E 7 11 29.93 1014 4 6 0.00 0.03
10:34 pm 22:34 Cloudy with Light Rain 72 22.2 70 21.1 94 94 E 8 13 29.93 1014 2 3 0.03 0.76
10:59 pm 22:59 Cloudy with Light Rain 72 22.2 71 21.7 97 97 ENE 8 13 29.93 1014 2 3 0.05 1.27
11:09 pm 23:09 Cloudy with Light Rain 72 22.2 70 21.1 94 94 E 8 13 29.93 1014 1 2 0.01 0.25
11:59 pm 23:59 Cloudy with Light Rain 71 21.7 70 21.1 96 96 ENE 7 11 29.93 1014 2 3 0.07 1.78

Powered by AerisWeather